AC2JK-WX Weather Reports


Display with metric or nautical units.
time (UTC)temp
F
wind
direction
speed
MPH
gust
MPH
rain 1hr
in
rain 24hr
in
rain mn
in
humidity
%
barometer
mb
20260904184210 80 342 1.0 1.0 0.00 0.00 0.01 61 1016.0
20260904183709 79 237 0.0 1.0 0.00 0.00 0.01 63 1016.0
20260904183209 79 356 1.0 2.0 0.00 0.00 0.01 61 1016.0
20260904182709 79 210 0.0 2.0 0.00 0.00 0.01 63 1016.0
20260904182209 79 185 1.0 2.0 0.00 0.00 0.01 61 1016.0
20260904181710 79 324 0.0 1.0 0.00 0.00 0.01 61 1016.0
20260904181209 79 154 2.0 3.0 0.00 0.00 0.01 61 1016.0
20260904180710 80 76 1.0 3.0 0.00 0.00 0.01 57 1016.0
20260904180211 80 136 0.0 4.0 0.00 0.00 0.01 56 1016.0
20260904175709 80 233 1.0 3.0 0.00 0.00 0.01 58 1016.0
20260904175209 81 157 2.0 3.0 0.00 0.00 0.01 57 1016.0
20260904174709 81 160 1.0 2.0 0.00 0.00 0.01 57 1016.0
20260904174210 81 352 1.0 3.0 0.00 0.00 0.01 58 1016.0
20260904173710 81 166 4.0 4.0 0.00 0.00 0.01 59 1016.0
20260904173210 81 264 0.0 4.0 0.00 0.00 0.01 58 1016.0
20260904172709 81 63 1.0 3.0 0.00 0.00 0.01 57 1016.0
20260904172209 81 303 1.0 5.0 0.00 0.00 0.01 55 1016.0
20260904171711 81 292 3.0 6.0 0.00 0.00 0.01 53 1016.0
20260904171210 81 16 2.0 5.0 0.00 0.00 0.01 52 1016.0
20260904170709 81 159 2.0 6.0 0.00 0.00 0.01 53 1017.0
20260904170210 80 141 0.0 0.0 0.00 0.00 0.01 57 1017.0
20260904165709 81 8 1.0 2.0 0.01 0.00 0.01 56 1017.0
20260904165209 81 305 3.0 7.0 0.01 0.00 0.01 55 1017.0
20260904164710 80 342 1.0 2.0 0.01 0.00 0.01 59 1017.0
20260904164209 80 23 1.0 4.0 0.01 0.00 0.01 58 1017.0
20260904163710 80 143 2.0 2.0 0.01 0.00 0.01 58 1017.0
20260904163209 79 35 1.0 4.0 0.01 0.00 0.01 59 1017.0
20260904162710 79 269 2.0 5.0 0.01 0.00 0.01 62 1017.0
20260904162209 79 269 1.0 6.0 0.01 0.00 0.01 63 1017.0
20260904161716 78 48 4.0 5.0 0.01 0.00 0.01 61 1017.0
20260904161209 78 254 4.0 5.0 0.01 0.00 0.01 61 1017.0
20260904160709 79 19 4.0 4.0 0.01 0.00 0.01 61 1017.0
20260904160210 78 2 1.0 1.0 0.01 0.00 0.01 64 1017.0
20260904155710 77 2 0.0 2.0 0.00 0.00 0.00 64 1017.0
20260904155211 77 341 3.0 3.0 0.00 0.00 0.00 63 1017.0
20260904154710 77 353 2.0 2.0 0.00 0.00 0.00 63 1017.0
20260904154211 77 235 0.0 3.0 0.00 0.00 0.00 62 1017.0
20260904153710 77 340 1.0 3.0 0.00 0.00 0.00 62 1017.0
20260904153209 77 335 0.0 2.0 0.00 0.00 0.00 62 1017.0
20260904152709 77 262 1.0 3.0 0.00 0.00 0.00 62 1017.0
20260904152210 76 49 0.0 0.0 0.00 0.00 0.00 67 1017.0
20260904151710 76 315 0.0 3.0 0.00 0.00 0.00 65 1017.0
20260904151211 76 359 1.0 1.0 0.00 0.00 0.00 67 1017.0
20260904150710 75 183 2.0 2.0 0.00 0.00 0.00 70 1017.0
20260904150209 74 125 0.0 0.0 0.00 0.00 0.00 72 1017.0
20260904145709 74 183 0.0 0.0 0.00 0.00 0.00 72 1017.0
20260904145209 73 316 0.0 0.0 0.00 0.00 0.00 73 1017.0
20260904144710 73 18 1.0 2.0 0.00 0.00 0.00 72 1017.0
20260904144211 73 351 0.0 4.0 0.00 0.00 0.00 74 1017.0
20260904143710 72 305 0.0 0.0 0.00 0.00 0.00 78 1017.0
20260904143210 72 66 0.0 0.0 0.00 0.00 0.00 78 1016.0
20260904142709 71 226 0.0 0.0 0.00 0.00 0.00 80 1016.0
20260904142210 70 151 0.0 0.0 0.00 0.00 0.00 82 1016.0
20260904141709 70 42 3.0 3.0 0.00 0.00 0.00 85 1016.0
20260904141210 69 6 0.0 1.0 0.00 0.00 0.00 88 1016.0
20260904140709 68 267 0.0 0.0 0.00 0.00 0.00 91 1016.0
20260904140210 68 5 0.0 0.0 0.00 0.00 0.00 94 1016.0
20260904135711 68 85 0.0 0.0 0.00 0.00 0.00 96 1016.0
20260904135213 67 71 0.0 0.0 0.00 0.00 0.00 98 1016.0
20260904134709 67 128 0.0 0.0 0.00 0.00 0.00 99 1017.0
20260904134210 66 307 0.0 0.0 0.00 0.00 0.00 98 1017.0
20260904133721 67 24 0.0 0.0 0.00 0.00 0.00 99 1017.0
20260904133209 66 252 0.0 0.0 0.00 0.00 0.00 99 1017.0
20260904132710 66 251 0.0 0.0 0.00 0.00 0.00 99 1017.0
20260904132210 66 334 0.0 0.0 0.00 0.00 0.00 100 1017.0
20260904131710 66 11 0.0 0.0 0.00 0.00 0.00 100 1017.0
20260904131209 66 303 0.0 0.0 0.00 0.00 0.00 100 1017.0
20260904130710 67 28 0.0 0.0 0.00 0.00 0.00 100 1017.0
20260904130210 66 120 0.0 0.0 0.00 0.00 0.00 100 1017.0
20260904125709 66 154 0.0 0.0 0.00 0.00 0.00 100 1017.0
20260904125209 66 39 0.0 0.0 0.00 0.00 0.00 100 1017.0
20260904124710 66 45 0.0 0.0 0.00 0.00 0.00 100 1017.0
20260904124209 66 326 0.0 0.0 0.00 0.00 0.00 100 1017.0
20260904123710 66 179 0.0 0.0 0.00 0.00 0.00 100 1017.0
20260904123209 66 144 0.0 0.0 0.00 0.00 0.00 100 1017.0
20260904122710 66 98 0.0 0.0 0.00 0.00 0.00 100 1017.0
20260904122209 66 336 0.0 0.0 0.00 0.00 0.00 100 1017.0
20260904121709 66 151 0.0 0.0 0.00 0.00 0.00 100 1017.0
20260904121210 66 146 0.0 0.0 0.00 0.00 0.00 100 1017.0
20260904120710 66 157 0.0 0.0 0.00 0.00 0.00 100 1017.0
20260904120210 66 152 0.0 0.0 0.00 0.00 0.00 100 1017.0
20260904115711 66 124 0.0 0.0 0.00 0.00 0.00 100 1017.0
20260904115209 66 141 0.0 0.0 0.00 0.00 0.00 100 1017.0
20260904114709 66 151 0.0 0.0 0.00 0.00 0.00 100 1017.0
20260904114211 66 155 0.0 0.0 0.00 0.00 0.00 100 1017.0
20260904113709 66 138 0.0 0.0 0.00 0.00 0.00 100 1016.0
20260904113209 66 146 0.0 0.0 0.00 0.00 0.00 100 1016.0
20260904112709 66 155 0.0 0.0 0.00 0.00 0.00 100 1016.0
20260904112209 66 156 0.0 0.0 0.00 0.00 0.00 100 1016.0
20260904111710 66 150 0.0 0.0 0.00 0.00 0.00 100 1016.0
20260904111210 66 168 0.0 0.0 0.00 0.00 0.00 100 1016.0
20260904110709 66 149 0.0 0.0 0.00 0.00 0.00 99 1016.0
20260904110210 66 139 0.0 0.0 0.00 0.00 0.00 100 1016.0
20260904105709 66 155 0.0 0.0 0.00 0.00 0.00 100 1016.0
20260904105211 66 142 0.0 0.0 0.00 0.00 0.00 100 1016.0
20260904104709 66 151 0.0 0.0 0.00 0.00 0.00 100 1016.0
20260904104209 67 144 0.0 0.0 0.00 0.00 0.00 100 1016.0
20260904103710 67 155 0.0 0.0 0.00 0.00 0.00 100 1016.0
20260904103209 67 142 0.0 0.0 0.00 0.00 0.00 100 1016.0
20260904102709 67 154 0.0 0.0 0.00 0.00 0.00 100 1016.0
20260904102209 67 158 0.0 0.0 0.00 0.00 0.00 100 1016.0
20260904101709 67 155 0.0 0.0 0.00 0.00 0.00 100 1016.0
20260904101210 67 144 0.0 0.0 0.00 0.00 0.00 100 1016.0
20260904100709 67 159 0.0 0.0 0.00 0.00 0.00 100 1016.0
20260904100210 66 156 0.0 0.0 0.00 0.00 0.00 100 1016.0
20260904095709 67 155 0.0 0.0 0.00 0.00 0.00 100 1016.0
20260904095210 67 155 0.0 0.0 0.00 0.00 0.00 100 1016.0
20260904094709 66 151 0.0 0.0 0.00 0.00 0.00 100 1016.0
20260904094209 66 131 0.0 0.0 0.00 0.00 0.00 99 1016.0
20260904093710 66 151 0.0 0.0 0.00 0.00 0.00 99 1016.0
20260904093212 67 150 0.0 0.0 0.00 0.00 0.00 100 1015.0
20260904092709 67 154 0.0 0.0 0.00 0.00 0.00 99 1015.0
20260904092209 67 123 0.0 0.0 0.00 0.00 0.00 100 1016.0
20260904091710 67 77 0.0 0.0 0.00 0.00 0.00 100 1015.0
20260904091209 67 122 0.0 0.0 0.00 0.00 0.00 100 1015.0
20260904090710 67 145 0.0 0.0 0.00 0.00 0.00 100 1015.0
20260904090210 67 130 0.0 0.0 0.00 0.00 0.00 100 1015.0
20260904085709 67 152 0.0 0.0 0.00 0.00 0.00 100 1015.0
20260904085210 67 121 0.0 0.0 0.00 0.00 0.00 100 1015.0
20260904084710 67 162 0.0 0.0 0.00 0.00 0.00 100 1015.0
20260904084210 67 138 0.0 0.0 0.00 0.00 0.00 100 1015.0
20260904083709 67 125 0.0 0.0 0.00 0.00 0.00 99 1016.0
20260904083209 67 162 0.0 0.0 0.00 0.00 0.00 99 1015.0
20260904082709 67 35 0.0 0.0 0.00 0.00 0.00 100 1016.0
20260904082209 67 42 0.0 0.0 0.00 0.00 0.00 99 1015.0
20260904081710 67 190 0.0 0.0 0.00 0.00 0.00 99 1015.0
20260904081210 67 356 0.0 0.0 0.00 0.00 0.00 99 1015.0
20260904080710 67 120 0.0 0.0 0.00 0.00 0.00 100 1015.0
20260904080210 67 115 0.0 0.0 0.00 0.00 0.00 99 1015.0
20260904075709 67 134 0.0 0.0 0.00 0.00 0.00 99 1015.0
20260904075211 67 331 0.0 0.0 0.00 0.00 0.00 99 1015.0
20260904074709 67 100 0.0 0.0 0.00 0.00 0.00 99 1015.0
20260904074210 67 78 0.0 0.0 0.00 0.00 0.00 99 1015.0
20260904073709 67 125 0.0 0.0 0.00 0.00 0.00 99 1015.0
20260904073209 67 113 0.0 0.0 0.00 0.00 0.00 99 1015.0
20260904072709 67 141 0.0 0.0 0.00 0.00 0.00 99 1015.0
20260904072209 67 147 0.0 0.0 0.00 0.00 0.00 100 1015.0
20260904071710 67 138 0.0 0.0 0.00 0.00 0.00 99 1015.0
20260904071210 67 164 0.0 0.0 0.00 0.00 0.00 99 1015.0
20260904070710 67 153 0.0 0.0 0.00 0.00 0.00 99 1015.0
20260904070210 67 153 0.0 0.0 0.00 0.00 0.00 99 1015.0
20260904065709 67 152 0.0 0.0 0.00 0.00 0.00 99 1015.0
20260904065210 68 160 0.0 0.0 0.00 0.00 0.00 99 1015.0
20260904064709 68 116 0.0 0.0 0.00 0.00 0.00 99 1015.0
20260904064209 68 151 0.0 0.0 0.00 0.00 0.00 99 1015.0
20260904063716 68 151 0.0 0.0 0.00 0.00 0.00 99 1015.0
20260904063209 68 154 0.0 0.0 0.00 0.00 0.00 99 1015.0
20260904062710 68 152 0.0 0.0 0.00 0.00 0.00 99 1015.0
20260904062210 68 158 0.0 0.0 0.00 0.00 0.00 99 1015.0
20260904061711 68 146 0.0 0.0 0.00 0.00 0.00 99 1015.0
20260904061209 68 133 0.0 0.0 0.00 0.00 0.00 99 1015.0
20260904060710 68 146 0.0 0.0 0.00 0.00 0.00 99 1015.0
20260904060210 69 149 0.0 0.0 0.00 0.00 0.00 99 1015.0
20260904055710 69 146 0.0 0.0 0.00 0.00 0.00 99 1015.0
20260904055210 69 143 0.0 0.0 0.00 0.00 0.00 99 1015.0
20260904054710 69 88 0.0 0.0 0.00 0.00 0.00 99 1015.0
20260904054209 69 154 0.0 0.0 0.00 0.00 0.00 99 1015.0
20260904053711 69 159 0.0 0.0 0.00 0.00 0.00 99 1015.0
20260904053209 69 171 0.0 0.0 0.00 0.00 0.00 99 1015.0
20260904052709 69 99 0.0 0.0 0.00 0.00 0.00 99 1015.0
20260904052210 69 148 0.0 0.0 0.00 0.00 0.00 99 1015.0
20260904051710 70 136 0.0 0.0 0.00 0.00 0.00 99 1015.0
20260904051209 70 154 0.0 0.0 0.00 0.00 0.00 99 1015.0
20260904050709 70 128 0.0 0.0 0.00 0.00 0.00 99 1015.0
20260904050209 70 134 0.0 0.0 0.00 0.00 0.00 99 1015.0
20260904045709 69 115 0.0 0.0 0.00 0.00 0.00 99 1015.0
20260904045209 70 140 0.0 0.0 0.00 0.00 0.00 99 1015.0
20260904044709 70 132 0.0 0.0 0.00 0.00 0.00 99 1015.0
20260904044210 70 7 0.0 0.0 0.00 0.00 0.00 99 1015.0
20260904043712 70 63 0.0 0.0 0.00 0.00 0.00 99 1015.0
20260904043209 70 320 0.0 0.0 0.00 0.00 0.00 99 1015.0
20260904042709 70 81 0.0 0.0 0.00 0.00 0.00 99 1015.0
20260904042209 70 145 0.0 0.0 0.00 0.00 0.00 99 1015.0
20260904041709 70 131 0.0 0.0 0.00 0.00 0.00 99 1015.0
20260904041210 70 133 0.0 0.0 0.00 0.00 0.00 99 1015.0
20260904040709 70 144 0.0 0.0 0.00 0.00 0.00 99 1015.0
20260904040209 70 148 0.0 0.0 0.00 0.00 3.25 99 1015.0
20260904035710 70 140 0.0 0.0 0.00 0.00 3.25 99 1015.0
20260904035210 70 133 0.0 0.0 0.00 0.00 3.25 99 1015.0
20260904034710 70 132 0.0 0.0 0.00 0.00 3.25 99 1015.0
20260904034209 70 147 0.0 0.0 0.00 0.00 3.25 99 1015.0
20260904033710 69 152 0.0 0.0 0.00 0.00 3.25 99 1015.0
20260904033210 69 134 0.0 0.0 0.00 0.00 3.25 99 1015.0
20260904032710 69 148 0.0 0.0 0.00 0.00 3.25 99 1015.0
20260904032209 69 125 0.0 0.0 0.00 0.00 3.25 99 1015.0
20260904031710 69 152 0.0 0.0 0.00 0.00 3.25 99 1015.0
20260904031209 69 148 0.0 0.0 0.00 0.00 3.25 99 1015.0
20260904030710 69 160 0.0 0.0 0.00 0.00 3.25 99 1015.0
20260904030209 70 157 0.0 0.0 0.00 0.00 3.25 99 1015.0
20260904025710 70 135 0.0 0.0 0.00 0.00 3.25 99 1015.0
20260904025210 70 149 0.0 0.0 0.00 0.00 3.25 99 1015.0
20260904024710 70 130 0.0 0.0 0.00 0.00 3.25 99 1015.0
20260904024209 70 135 0.0 0.0 0.00 0.00 3.25 98 1015.0
20260904023709 70 144 0.0 0.0 0.00 0.00 3.25 98 1015.0
20260904023209 70 149 0.0 0.0 0.00 0.00 3.25 98 1015.0
20260904022709 71 172 0.0 0.0 0.00 0.00 3.25 98 1015.0
20260904022211 71 118 0.0 0.0 0.00 0.00 3.25 98 1015.0
20260904021709 71 115 0.0 0.0 0.00 0.00 3.25 99 1015.0
20260904021213 71 174 0.0 0.0 0.00 0.00 3.25 99 1015.0
20260904020710 71 198 0.0 0.0 0.00 0.00 3.25 98 1015.0
20260904020209 71 320 0.0 0.0 0.00 0.00 3.25 98 1015.0
20260904015709 71 331 0.0 0.0 0.00 0.00 3.25 98 1015.0
20260904015209 72 195 0.0 0.0 0.01 0.00 3.25 98 1015.0
20260904014710 72 174 0.0 0.0 0.06 0.00 3.25 98 1014.0
20260904014210 71 311 0.0 0.0 0.09 0.00 3.25 98 1015.0
20260904013710 71 114 0.0 0.0 0.13 0.00 3.25 98 1015.0
20260904013209 71 360 0.0 0.0 0.36 0.00 3.25 98 1015.0
20260904012709 71 43 0.0 0.0 0.56 0.00 3.25 98 1015.0
20260904012209 71 229 0.0 0.0 0.67 0.00 3.25 98 1014.0
20260904011709 71 143 0.0 0.0 0.72 0.00 3.25 98 1014.0
20260904011209 71 150 0.0 0.0 0.96 0.00 3.25 98 1014.0
20260904010710 71 162 0.0 0.0 0.97 0.00 3.25 98 1014.0
20260904010210 71 189 0.0 0.0 0.98 0.00 3.25 98 1014.0
20260904005710 72 71 0.0 0.0 0.98 0.00 3.25 98 1014.0
20260904005210 72 148 2.0 3.0 0.97 0.00 3.24 98 1014.0
20260904004711 71 289 0.0 3.0 1.09 0.00 3.19 98 1014.0
20260904004209 71 345 8.0 8.0 1.31 0.00 3.16 98 1014.0
20260904003709 71 325 0.0 2.0 1.49 0.00 3.07 98 1014.0
20260904003209 71 136 0.0 4.0 1.40 0.00 2.89 97 1014.0
20260904002710 71 143 0.0 0.0 1.27 0.00 2.66 97 1014.0
20260904002210 71 168 0.0 0.0 1.33 0.00 2.58 97 1014.0
20260904001709 72 282 0.0 7.0 1.41 0.00 2.53 97 1014.0
20260904001210 72 347 0.0 0.0 1.23 0.00 2.28 97 1014.0
20260904000709 72 150 0.0 0.0 1.48 0.00 2.28 97 1014.0
20260904000211 71 352 0.0 0.0 1.72 0.00 2.27 97 1014.0
20260903235710 71 310 0.0 0.0 1.99 0.00 2.27 97 1014.0
20260903235212 72 131 0.0 4.0 2.15 0.00 2.27 97 1014.0
20260903234711 72 3 1.0 8.0 2.03 0.00 2.10 96 1014.0
20260903234209 74 335 5.0 7.0 1.75 0.00 1.75 96 1014.0
20260903233714 73 342 3.0 3.0 1.54 0.00 1.54 96 1014.0
20260903233209 73 220 0.0 0.0 1.48 0.00 1.48 95 1014.0
20260903232709 73 161 0.0 4.0 1.36 0.00 1.36 95 1014.0
20260903232209 74 162 0.0 3.0 1.23 0.00 1.23 95 1014.0
20260903231709 74 234 0.0 0.0 1.07 0.00 1.07 94 1014.0
20260903231210 74 170 2.0 2.0 1.01 0.00 1.01 94 1014.0
20260903230710 75 5 0.0 4.0 0.80 0.00 0.80 93 1014.0
20260903230210 75 193 2.0 5.0 0.50 0.00 0.50 92 1014.0
20260903225709 76 284 0.0 3.0 0.23 0.00 0.23 90 1014.0
20260903225209 76 187 2.0 2.0 0.08 0.00 0.08 89 1014.0
20260903224709 77 143 1.0 4.0 0.01 0.00 0.01 87 1014.0
20260903224209 77 143 1.0 1.0 0.00 0.00 0.00 86 1014.0
20260903223710 77 219 0.0 0.0 0.00 0.00 0.00 85 1014.0
20260903223209 77 169 3.0 3.0 0.00 0.00 0.00 85 1014.0
20260903222709 77 330 2.0 2.0 0.00 0.00 0.00 85 1014.0
20260903222213 78 245 0.0 1.0 0.00 0.00 0.00 85 1014.0
20260903221709 78 122 2.0 2.0 0.00 0.00 0.00 85 1014.0
20260903221209 78 171 3.0 3.0 0.00 0.00 0.00 84 1014.0
20260903220711 78 149 4.0 6.0 0.00 0.00 0.00 84 1013.0
20260903220209 78 130 4.0 4.0 0.00 0.00 0.00 83 1013.0
20260903215709 78 196 3.0 7.0 0.00 0.00 0.00 83 1013.0
20260903215209 79 217 0.0 4.0 0.00 0.00 0.00 82 1013.0
20260903214710 79 231 1.0 1.0 0.00 0.00 0.00 82 1013.0
20260903214209 79 141 4.0 4.0 0.00 0.00 0.00 81 1013.0
20260903213710 79 59 0.0 3.0 0.00 0.00 0.00 82 1013.0
20260903213210 79 209 1.0 3.0 0.00 0.00 0.00 82 1013.0
20260903212710 79 146 2.0 3.0 0.00 0.00 0.00 81 1013.0
20260903212209 79 145 2.0 2.0 0.00 0.00 0.00 81 1013.0
20260903211710 79 198 0.0 2.0 0.00 0.00 0.00 81 1013.0
20260903211209 79 230 3.0 3.0 0.00 0.00 0.00 81 1013.0
20260903210709 79 189 3.0 6.0 0.00 0.00 0.00 81 1013.0
20260903210210 79 212 1.0 4.0 0.00 0.00 0.00 81 1014.0
20260903205709 79 162 4.0 4.0 0.00 0.00 0.00 81 1014.0
20260903205209 79 227 2.0 4.0 0.00 0.00 0.00 81 1013.0
20260903204710 79 183 0.0 1.0 0.00 0.00 0.00 82 1013.0
20260903204210 79 96 2.0 4.0 0.00 0.00 0.00 81 1014.0
20260903203709 79 170 0.0 2.0 0.00 0.00 0.00 81 1014.0
20260903203209 79 111 3.0 7.0 0.00 0.00 0.00 80 1014.0
20260903202709 79 177 2.0 3.0 0.00 0.00 0.00 80 1014.0
20260903202210 79 180 3.0 4.0 0.00 0.00 0.00 81 1014.0
20260903201709 79 144 5.0 7.0 0.00 0.00 0.00 80 1014.0
20260903201210 79 51 2.0 6.0 0.00 0.00 0.00 80 1014.0
20260903200709 80 125 1.0 4.0 0.00 0.00 0.00 78 1014.0
20260903200209 80 156 0.0 5.0 0.00 0.00 0.00 78 1014.0
20260903195710 80 167 2.0 4.0 0.00 0.00 0.00 77 1014.0
20260903195210 80 162 0.0 2.0 0.00 0.00 0.00 77 1014.0
20260903194709 81 143 4.0 7.0 0.00 0.00 0.00 76 1014.0
20260903194209 81 121 0.0 3.0 0.00 0.00 0.00 77 1014.0
20260903193709 81 202 1.0 4.0 0.00 0.00 0.00 76 1014.0
20260903193209 81 164 2.0 5.0 0.00 0.00 0.00 75 1014.0
20260903192709 82 192 3.0 3.0 0.00 0.00 0.00 74 1014.0
20260903192209 82 243 1.0 5.0 0.00 0.00 0.00 74 1014.0
20260903191710 83 224 2.0 6.0 0.00 0.00 0.00 73 1014.0
20260903191210 83 142 2.0 6.0 0.00 0.00 0.00 70 1014.0
20260903190710 83 99 0.0 0.0 0.00 0.00 0.00 72 1014.0
20260903190210 83 119 2.0 3.0 0.00 0.00 0.00 70 1014.0
20260903185709 83 138 4.0 4.0 0.00 0.00 0.00 71 1014.0
20260903185210 83 249 2.0 6.0 0.00 0.00 0.00 71 1014.0
20260903184710 83 318 2.0 6.0 0.00 0.00 0.00 72 1014.0